Flag for Madagascar Weather past 2 weeks in Antananarivo, Madagascar

Now
79 °F

Scattered clouds.


Feels Like: 81 °F
Forecast: 63 / 84 °F
Wind: 5 mph from Northeast

Location: Antananarivo / Ivato

Current Time: Mar 28, 2015 at 12:57:19 PM

Latest Report: Mar 28, 2015 at 12:30 PM


Visibility: N/A

Pressure: 30.12 "Hg

Humidity: 70%

Dew point: 68 °F

Location of AntananarivoLocation

Historic Weather in Antananarivo — Graph

°F

Antananarivo temperature yesterday

Maximum temperature yesterday: 84 °F (at 3:30 PM)
Minimum temperature yesterday: 63 °F (at 2:00 AM)
Average temperature yesterday: 72 °F

Past Weeks' High & Low Weather Summary

 TemperatureHumidityPressure
High86 °F (Mar 18, 2:30 PM)100% (Mar 13, 6:30 PM)30.27 "Hg (Mar 13, 6:30 PM)
Low57 °F (Mar 17, 5:00 AM)43% (Mar 19, 2:30 PM)30.09 "Hg (Mar 27, 3:00 PM)
Average70 °F89%30.20 "Hg
* Reported Mar 13 12:00 Noon — Mar 28 12:00 Noon, Antananarivo, Weather by CustomWeather, © 2015

Note: Actual official high and low records may vary slightly from our data, if they occured in-between our weather recording intervals... More about our weather records

Advertising

Antananarivo weather history for previous 24 hours

 ConditionsComfort  
Time TempWeatherWind HumidityBarometerVisibility
12:00 PM
Sat, Mar 28
79 °FScattered clouds.5 mph70%30.15 "HgN/A
11:30 AM79 °FScattered clouds.6 mph79%30.15 "HgN/A
11:00 AM77 °FScattered clouds.3 mph79%30.18 "HgN/A
10:30 AM75 °FScattered clouds.7 mph78%30.18 "HgN/A
10:00 AM73 °FScattered clouds.8 mph78%30.18 "HgN/A
9:30 AM73 °FScattered clouds.7 mph83%30.18 "HgN/A
9:00 AM73 °FBroken clouds.7 mph83%30.18 "HgN/A
8:30 AM72 °FScattered clouds.5 mph88%30.18 "HgN/A
8:00 AM70 °FScattered clouds.5 mph94%30.18 "HgN/A
7:30 AM68 °FScattered clouds.6 mph100%30.18 "HgN/A
7:00 AM66 °FPassing clouds.7 mph100%30.18 "HgN/A
6:30 AM64 °FPassing clouds.5 mph100%30.15 "HgN/A
6:00 AM63 °FPassing clouds.2 mph100%30.15 "HgN/A
5:30 AM63 °FPassing clouds.3 mph100%30.12 "HgN/A
5:00 AM63 °FPassing clouds.2 mph100%30.12 "HgN/A
4:30 AM63 °FPassing clouds.6 mph100%30.12 "HgN/A
4:00 AM64 °FPassing clouds.6 mph100%30.12 "HgN/A
3:30 AM64 °FPassing clouds.7 mph100%30.12 "HgN/A
3:00 AM64 °FPassing clouds.7 mph100%30.12 "HgN/A
2:30 AM64 °FPassing clouds.7 mph100%30.12 "HgN/A
1:00 AM68 °FPassing clouds.7 mph100%30.15 "HgN/A
12:30 AM68 °FPassing clouds.7 mph100%30.15 "HgN/A
12:00 AM68 °FPassing clouds.7 mph100%30.18 "HgN/A
11:30 PM
Fri, Mar 27
68 °FPassing clouds.8 mph100%30.18 "HgN/A
11:00 PM68 °FPassing clouds.8 mph100%30.18 "HgN/A
10:30 PM68 °FPassing clouds.7 mph100%30.18 "HgN/A
10:00 PM68 °FPassing clouds.6 mph100%30.18 "HgN/A
9:30 PM68 °FPassing clouds.10 mph100%30.18 "HgN/A
9:00 PM70 °FPassing clouds.8 mph100%30.21 "HgN/A
8:30 PM70 °FPassing clouds.8 mph100%30.18 "HgN/A
8:00 PM70 °FPassing clouds.9 mph100%30.18 "HgN/A
7:30 PM72 °FPassing clouds.10 mph94%30.18 "HgN/A
7:00 PM73 °FPassing clouds.5 mph89%30.15 "HgN/A
6:30 PM73 °FPassing clouds.7 mph83%30.15 "HgN/A
6:00 PM73 °FPassing clouds.12 mph83%30.12 "HgN/A
5:30 PM77 °FScattered clouds.9 mph79%30.12 "HgN/A
5:00 PM84 °FScattered clouds.No wind58%30.09 "HgN/A
4:30 PM82 °FScattered clouds.3 mph66%30.09 "HgN/A
4:00 PM82 °FScattered clouds.6 mph62%30.09 "HgN/A
3:30 PM84 °FScattered clouds.2 mph62%30.09 "HgN/A
3:00 PM82 °FScattered clouds.2 mph66%30.09 "HgN/A
2:30 PM81 °FScattered clouds.5 mph66%30.12 "HgN/A
2:00 PM79 °FScattered clouds.3 mph70%30.12 "HgN/A
1:30 PM81 °FScattered clouds.6 mph62%30.15 "HgN/A
1:00 PM82 °FBroken clouds.3 mph62%30.15 "HgN/A
12:30 PM77 °FBroken clouds.3 mph69%30.15 "HgN/A
12:00 PM79 °FBroken clouds.3 mph74%30.18 "HgN/A
Weather by CustomWeather, © 2015

See weather overviewHow to use our weather pages